DW6123 Weather Reports


Display with metric or nautical units.
time (UTC)temp
F
wind
direction
speed
MPH
gust
MPH
rain 1hr
in
rain 24hr
in
rain mn
in
humidity
%
barometer
mb
20260503194047 88 182 1.0 3.0 0.00 0.00 0.00 34 1010.2
20260503193547 87 191 1.0 3.0 0.00 0.00 0.00 34 1010.2
20260503193047 87 242 1.0 3.0 0.00 0.00 0.00 35 1010.2
20260503192546 87 184 1.0 3.0 0.00 0.00 0.00 36 1010.3
20260503192046 86 184 1.0 4.0 0.00 0.00 0.00 35 1010.4
20260503191547 85 162 1.0 4.0 0.00 0.00 0.00 37 1010.4
20260503191046 85 204 1.0 3.0 0.00 0.00 0.00 39 1010.4
20260503190545 85 212 1.0 4.0 0.00 0.00 0.00 37 1010.6
20260503190045 85 143 1.0 4.0 0.00 0.00 0.00 38 1010.6
20260503185545 84 217 0.0 3.0 0.00 0.00 0.00 40 1010.6
20260503185046 83 228 1.0 4.0 0.00 0.00 0.00 39 1010.7
20260503184545 83 159 1.0 4.0 0.00 0.00 0.00 41 1010.7
20260503184045 83 218 0.0 3.0 0.00 0.00 0.00 40 1010.9
20260503183545 83 186 1.0 2.0 0.00 0.00 0.00 42 1011.0
20260503183045 82 182 1.0 2.0 0.00 0.00 0.00 42 1011.0
20260503182543 82 188 0.0 1.0 0.00 0.00 0.00 42 1011.1
20260503182043 82 188 0.0 1.0 0.00 0.00 0.00 44 1011.1
20260503181542 80 188 0.0 1.0 0.00 0.00 0.00 46 1011.2
20260503181041 79 188 0.0 1.0 0.00 0.00 0.00 47 1011.2
20260503180539 79 186 0.0 1.0 0.00 0.00 0.00 46 1011.2
20260503180040 79 186 0.0 1.0 0.00 0.00 0.00 47 1011.3
20260503175536 79 186 0.0 1.0 0.00 0.00 0.00 48 1011.3
20260503175036 77 185 0.0 1.0 0.00 0.00 0.00 50 1011.4
20260503174535 76 184 1.0 3.0 0.00 0.00 0.00 51 1011.4
20260503174035 76 227 1.0 4.0 0.00 0.00 0.00 51 1011.5
20260503173535 75 142 1.0 4.0 0.00 0.00 0.00 52 1011.5
20260503173033 75 139 0.0 0.0 0.00 0.00 0.00 56 1011.6
20260503172529 74 139 0.0 0.0 0.00 0.00 0.00 55 1011.6
20260503172032 74 161 0.0 0.0 0.00 0.00 0.00 55 1011.7
20260503171508 73 179 0.0 0.0 0.00 0.00 0.00 56 1011.7
20260503171009 72 181 0.0 0.0 0.00 0.00 0.00 56 1011.6
20260503170504 72 165 0.0 0.0 0.00 0.00 0.00 61 1011.6
20260503150939 56 161 0.0 0.0 0.00 0.00 0.00 94 1012.2
20260503150439 56 161 0.0 0.0 0.00 0.00 0.00 94 1012.1
20260503130859 53 161 0.0 0.0 0.00 0.00 0.00 93 1011.7
20260503130358 53 161 0.0 0.0 0.00 0.00 0.00 93 1011.7
20260503110335 54 161 0.0 0.0 0.00 0.00 0.00 91 1012.0
20260503081307 57 160 0.0 0.0 0.00 0.00 0.00 87 1012.4
20260503080806 57 160 0.0 0.0 0.00 0.00 0.00 87 1012.5
20260503072301 59 161 0.0 0.0 0.00 0.00 0.00 85 1012.5
20260503071801 59 160 0.0 0.0 0.00 0.00 0.00 85 1012.4
20260503070800 59 160 0.0 0.0 0.00 0.00 0.00 84 1012.4
20260503070301 60 160 0.0 0.0 0.00 0.00 0.00 84 1012.4
20260503054235 61 161 0.0 0.0 0.00 0.00 0.00 81 1012.1
20260503053236 61 160 0.0 0.0 0.00 0.00 0.00 82 1012.1
20260503052736 61 160 0.0 0.0 0.00 0.00 0.00 81 1012.0
20260503052232 61 160 0.0 0.0 0.00 0.00 0.00 81 1012.1
20260503051233 62 160 0.0 0.0 0.00 0.00 0.00 80 1012.5
20260503050733 62 160 0.0 0.0 0.00 0.00 0.00 80 1012.6
20260503050236 62 160 0.0 0.0 0.00 0.00 0.00 79 1012.8
20260503045705 62 160 0.0 0.0 0.00 0.00 0.00 79 1012.7
20260503045205 62 160 0.0 0.0 0.00 0.00 0.00 79 1012.5
20260503044659 62 160 0.0 0.0 0.00 0.00 0.00 79 1012.5
20260503044200 62 160 0.0 0.0 0.00 0.00 0.00 79 1012.4
20260503043656 63 160 0.0 0.0 0.00 0.00 0.00 78 1012.4
20260503043153 63 160 0.0 0.0 0.00 0.00 0.00 78 1012.4
20260503042653 63 160 0.0 0.0 0.00 0.00 0.00 78 1012.4
20260503041647 63 160 0.0 0.0 0.00 0.00 0.00 77 1012.6
20260503041145 63 160 0.0 0.0 0.00 0.00 0.00 77 1012.7
20260503040645 63 160 0.0 0.0 0.00 0.00 0.00 76 1012.5
20260503040146 64 160 0.0 0.0 0.00 0.00 0.00 76 1012.6
20260503035644 64 160 0.0 0.0 0.00 0.00 0.00 76 1012.6
20260503034644 64 160 0.0 0.0 0.00 0.00 0.00 75 1012.5
20260503034141 64 160 0.0 0.0 0.00 0.00 0.00 75 1012.5
20260503033640 64 160 0.0 0.0 0.00 0.00 0.00 75 1012.3
20260503033141 64 156 0.0 0.0 0.00 0.00 0.00 75 1012.1
20260503032641 65 155 0.0 0.0 0.00 0.00 0.00 74 1012.2
20260503032139 65 154 0.0 0.0 0.00 0.00 0.00 74 1012.2
20260503031639 65 154 0.0 0.0 0.00 0.00 0.00 74 1012.1
20260503031139 65 154 0.0 0.0 0.00 0.00 0.00 73 1012.1
20260503030639 65 155 0.0 1.0 0.00 0.00 0.00 72 1012.2
20260503030140 66 154 0.0 1.0 0.00 0.00 0.00 72 1012.2
20260503025135 66 154 1.0 4.0 0.00 0.00 0.00 72 1012.3
20260503024133 66 270 2.0 7.0 0.00 0.00 0.00 71 1012.3
20260503023633 66 153 2.0 6.0 0.00 0.00 0.00 71 1012.2
20260503022631 67 224 2.0 10.0 0.00 0.00 0.00 69 1012.3
20260503022131 69 333 2.0 10.0 0.00 0.00 0.00 68 1012.3
20260503021630 70 152 2.0 6.0 0.00 0.00 0.00 66 1012.2
20260503021131 70 131 1.0 6.0 0.00 0.00 0.00 65 1012.2
20260503020127 72 169 0.0 2.0 0.00 0.00 0.00 64 1011.7
20260503015625 73 169 0.0 2.0 0.00 0.00 0.00 63 1011.5
20260503015128 72 199 0.0 1.0 0.00 0.00 0.00 62 1011.3
20260503014627 72 199 0.0 1.0 0.00 0.00 0.00 62 1011.2
20260503013624 72 172 0.0 1.0 0.00 0.00 0.00 63 1011.3
20260503013121 72 172 0.0 1.0 0.00 0.00 0.00 63 1011.2
20260503012621 72 141 0.0 2.0 0.00 0.00 0.00 64 1011.2
20260503012120 72 141 0.0 2.0 0.00 0.00 0.00 62 1011.1
20260503011616 72 169 0.0 1.0 0.00 0.00 0.00 64 1011.1
20260503010113 72 164 1.0 4.0 0.00 0.00 0.00 62 1011.2
20260503005113 72 218 1.0 2.0 0.00 0.00 0.00 63 1011.1
20260503004614 71 139 2.0 5.0 0.00 0.00 0.00 63 1011.2
20260503004113 71 129 2.0 5.0 0.00 0.00 0.00 63 1011.2
20260503003613 71 166 1.0 5.0 0.00 0.00 0.00 63 1011.2
20260503002614 71 111 1.0 5.0 0.00 0.00 0.00 62 1011.2
20260503002111 72 129 1.0 5.0 0.00 0.00 0.00 62 1011.2
20260503001110 71 129 2.0 6.0 0.00 0.00 0.00 62 1011.3
20260503000607 72 134 2.0 6.0 0.00 0.00 0.00 62 1011.3
20260503000107 71 148 2.0 4.0 0.00 0.00 0.00 61 1011.4
20260502235106 71 134 2.0 5.0 0.00 0.00 0.00 61 1011.3
20260502234605 71 124 1.0 4.0 0.00 0.00 0.00 61 1011.5
20260502234059 71 131 2.0 4.0 0.00 0.00 0.00 62 1011.5
20260502233559 71 134 2.0 5.0 0.00 0.00 0.00 61 1011.6
20260502233059 71 128 2.0 6.0 0.00 0.00 0.00 61 1011.7
20260502232557 71 128 1.0 6.0 0.00 0.00 0.00 62 1011.7
20260502232056 72 135 1.0 3.0 0.00 0.00 0.00 61 1011.8
20260502231557 71 146 2.0 5.0 0.00 0.00 0.00 62 1011.7
20260502231056 71 127 2.0 5.0 0.00 0.00 0.00 62 1011.8
20260502230557 71 128 2.0 7.0 0.00 0.00 0.00 63 1011.9
20260502230057 71 146 2.0 7.0 0.00 0.00 0.00 63 1011.9
20260502225557 71 153 2.0 6.0 0.00 0.00 0.00 63 1012.1
20260502224553 70 141 1.0 4.0 0.00 0.00 0.00 63 1012.2
20260502224054 70 131 2.0 3.0 0.00 0.00 0.00 63 1012.3
20260502223553 70 142 2.0 3.0 0.00 0.00 0.00 63 1012.5
20260502223051 70 122 1.0 4.0 0.00 0.00 0.00 64 1012.5
20260502222551 70 79 2.0 4.0 0.00 0.00 0.00 63 1012.6
20260502221550 71 125 2.0 4.0 0.00 0.00 0.00 61 1012.7
20260502220551 70 131 2.0 4.0 0.00 0.00 0.00 62 1012.9
20260502220051 69 89 2.0 5.0 0.00 0.00 0.00 64 1013.0
20260502215549 69 65 1.0 5.0 0.00 0.00 0.00 62 1013.1
20260502214549 68 141 1.0 4.0 0.00 0.00 0.00 64 1013.1
20260502214047 69 75 1.0 4.0 0.00 0.00 0.00 64 1013.2
20260502213547 67 164 2.0 4.0 0.00 0.00 0.00 67 1013.3
20260502213047 67 136 1.0 4.0 0.00 0.00 0.00 66 1013.4
20260502212547 67 133 1.0 4.0 0.00 0.00 0.00 65 1013.5
20260502212047 67 129 2.0 5.0 0.00 0.00 0.00 67 1013.5
20260502211541 66 231 2.0 5.0 0.00 0.00 0.00 66 1013.6
20260502211037 65 221 1.0 5.0 0.00 0.00 0.00 68 1013.9
20260502210537 66 90 1.0 4.0 0.00 0.00 0.00 67 1013.9
20260502210036 65 156 2.0 4.0 0.00 0.00 0.00 69 1013.9
20260502205537 65 151 2.0 5.0 0.00 0.00 0.00 69 1014.0
20260502205037 64 345 2.0 5.0 0.00 0.00 0.00 69 1014.1
20260502204537 64 122 2.0 5.0 0.00 0.00 0.00 69 1014.1
20260502204036 64 134 2.0 5.0 0.00 0.00 0.00 70 1014.2
20260502203537 63 129 2.0 5.0 0.00 0.00 0.00 69 1014.3
20260502203031 64 131 1.0 4.0 0.00 0.00 0.00 69 1014.5
20260502202530 64 140 1.0 4.0 0.00 0.00 0.00 70 1014.4
20260502202029 63 201 1.0 4.0 0.00 0.00 0.00 71 1014.5
20260502201529 62 144 2.0 4.0 0.00 0.00 0.00 71 1014.5
20260502201026 62 89 2.0 4.0 0.00 0.00 0.00 71 1014.7
20260502200026 62 120 1.0 3.0 0.00 0.00 0.00 71 1014.7
20260502195026 60 205 1.0 6.0 0.00 0.00 0.00 74 1014.7
20260502194526 60 58 1.0 5.0 0.00 0.00 0.00 74 1015.0